Probability
0 0 0 0 0 0 0 0 0 0 0 0 0 0 0 0 0 0 0 0 0 0 0 0 0 0 0 0 0 0 0 0 0 0 0 0 0 0 0 0 0 0 0
0 0 0 0 0 0 0 0 0 0 0 0 0 0 0 0 0 0 0 0 0 0 0 0 0 0 0 0 0 0 0 0 0 0 0 0 0 0 0 0 0 0 0
0 0 0 0 0 0 0 0 0 0 0 0 0 0 0 0 0 0 0 0 0 0 0 0 0 0 0 0 0 0 0 0 0 0 0 0 0 0 0 0 0 0 0
0 0 0 0 0 0 0 0 0 0 0 0 0 0 0 0 0 0 0 0 0 0 0 0 0 0 0 0 0 0 0 0 0 0 0 0 0 0 0 0 0 0 0
0 0 0 0 0 0 0 0 0 0 0 0 0 0 0 0 0 0 0 0 0 0 0 0 0 0 0 0 0 0 0 0 0 0 0 0 0 0 0 0 0 0 0
0 0 0 0 0 0 0 0 0 0 0 0 0 0 0 0 0 0 0 0 0 0 0 0 0 0 0 0 0 0 0 0 0 0 0 0 0 0 0 0 0 0 0
0 0 0 0 0 0 0 0 0 0 0 0 0 0 0 0 0 0 0 0 0 0 0 0 0 0 0 0 0 0 0 0 0 0 0 0 0 0 0 0 0 0 0
0 0 0 0 0 0 0 0 0 0 0 0 0 0 0 0 0 0 0 0 0 0 0 0 0 0 0 0 0 0 0 0 0 0 0 0 0 0 0 0 0 0 0
0 0 0 0 0 0 0 0 0 0 0 0 0 0 0 0 0 0 0 0 0 0 0 0 0 0 0 0 0 0 0 0 0 0 0 0 0 0 0 0 0 0 0
0 0 0 0 0 0 0 0 0 0 0 0 0 0 0 0 0 0 0 0 0 0 0 0 0 0 0 0 0 0 0 0 0 0 0 0 0 0 0 0 0 0 0
0 0 0 0 0 0 0 0 0 0 0 0 0 0 0 0 0 0 0 0 0 0 0 0 0 0 0 0 0 0 0 0 0 0 0 0 0 0 0 0 0 0 0
1 1 1 1 1 1 1 0 1 1 0 0 0 0 0 0 0 0 0 0 0 0 0 0 0 0 0 0 0 0 0 0 0 0 0 0 0 0 0 0 0 0 0
2 2 1 1 2 2 2 2 2 2 1 1 0 0 0 0 0 0 0 0 0 0 0 0 0 0 0 0 0 0 0 0 0 0 0 0 0 0 0 0 0 0 0
4 3 1 1 1 3 3 3 3 2 2 1 0 0 0 0 0 0 0 0 0 0 0 0 0 0 0 0 0 0 0 0 0 0 0 0 0 0 0 0 0 0 0
6 4 2 1 2 3 3 3 3 1 1 1 0 0 0 0 0 0 0 0 0 0 0 0 0 0 0 0 0 0 0 0 0 0 0 0 0 0 0 0 0 0 0
9 7 6 5 4 4 3 3 3 1 0 0 0 0 0 0 0 0 0 0 0 0 0 0 0 0 0 0 0 0 0 0 0 0 0 0 0 0 0 0 0 0 0
11 11 10 8 7 7 6 5 4 2 1 0 0 0 0 0 0 0 0 0 0 0 0 0 0 0 0 0 0 0 0 0 0 0 0 0 0 0 0 0 0 0 0
12 13 13 11 10 10 10 9 7 4 1 0 0 0 0 0 0 0 0 0 0 0 0 0 0 0 0 0 0 0 0 0 0 0 0 0 0 0 0 0 0 0 0
14 16 17 16 15 13 12 11 10 6 2 0 0 0 0 0 0 0 0 0 0 0 0 0 0 0 0 0 0 0 0 0 0 0 0 0 0 0 0 0 0 0 0
19 20 22 22 20 17 14 13 10 6 3 1 0 0 0 0 0 0 1 1 1 0 0 0 0 0 0 0 0 0 0 0 0 0 0 0 0 0 0 0 0 0 0
25 26 27 26 24 22 18 14 10 7 4 3 1 0 0 0 0 1 1 2 2 1 0 0 0 0 0 0 0 0 0 0 0 0 0 0 0 0 0 0 0 0 0
31 31 29 26 24 23 20 16 11 8 6 5 3 2 2 1 1 1 1 2 3 2 1 1 0 0 0 0 0 1 1 0 0 0 0 0 0 0 0 0 0 0 0
35 33 30 25 22 20 18 16 13 9 8 7 5 3 3 3 2 1 1 1 2 2 2 1 1 1 1 1 1 2 2 2 1 1 0 0 0 0 0 0 0 0 1
31 31 30 27 24 19 16 15 13 9 6 4 3 2 3 3 3 1 0 0 1 1 1 1 2 3 4 3 3 3 3 3 2 1 0 0 0 0 0 0 0 0 1
24 25 27 29 26 20 15 13 12 9 5 3 1 2 3 3 3 1 0 1 2 3 2 2 4 5 6 5 5 5 4 3 2 1 0 0 0 0 0 0 0 1 1
19 20 23 27 26 21 15 12 11 10 7 4 2 2 3 3 2 1 0 1 4 4 3 3 5 6 6 6 6 6 5 4 2 1 0 0 1 1 1 0 1 2 2
Wind_Speed
8 10 10 9 9 10 10 11 11 11 11 11 11 12 12 12 12 12 12 13 12 12 12 13 13 13 13 13 12 13 13 12 13 13 14 14 13 14 13 13 13 12 15
10 11 11 9 10 10 10 11 11 11 11 11 11 11 11 12 12 12 12 12 12 12 12 13 13 13 12 12 12 12 12 12 12 13 14 14 13 13 12 11 10 11 14
10 11 11 9 9 10 10 10 10 11 11 11 11 11 11 11 12 12 11 12 11 12 12 13 13 13 12 12 12 12 12 11 11 11 10 10 12 12 12 13 13 14 13
10 10 10 10 9 9 10 10 10 10 10 10 10 10 10 10 11 11 11 11 12 12 12 12 12 12 12 12 12 12 12 11 10 8 7 9 10 13 12 13 13 13 12
9 9 11 9 9 9 9 9 10 10 10 10 10 10 10 10 11 11 11 11 12 12 12 12 12 11 12 12 12 12 11 10 8 6 8 9 10 12 12 12 12 12 12
10 9 13 8 9 9 9 9 9 10 10 10 10 10 10 10 11 11 11 11 11 11 11 11 11 11 11 11 11 11 10 8 7 7 8 8 10 11 11 11 12 12 12
10 9 12 9 9 9 9 9 9 10 10 10 10 10 11 11 11 11 11 11 11 11 10 10 10 10 10 10 11 10 8 4 5 8 7 8 10 11 11 11 11 11 11
9 10 12 10 8 8 8 8 8 9 9 9 10 10 10 10 10 11 10 10 10 10 10 10 9 9 9 10 10 8 6 4 7 8 8 9 11 10 11 10 10 11 11
8 9 8 10 10 9 8 8 8 8 9 9 9 10 10 10 10 10 10 10 10 9 9 9 8 8 9 9 8 7 5 2 4 6 8 8 10 10 10 10 10 10 10
7 7 7 7 7 8 9 8 8 8 8 8 9 8 9 10 10 9 10 9 9 8 8 8 8 9 9 9 8 7 5 5 5 7 6 9 10 9 9 9 9 9 9
6 5 5 7 6 5 7 9 8 8 7 7 8 7 5 5 8 7 10 8 8 8 8 8 7 8 8 9 8 6 6 2 5 5 6 11 9 8 9 8 8 8 8
7 6 5 4 5 4 4 5 4 4 5 3 4 4 4 4 3 6 9 7 7 7 7 7 6 7 6 6 8 8 3 4 4 4 7 10 8 8 8 8 7 7 8
7 5 6 5 4 3 2 2 2 2 3 3 4 3 3 3 3 4 4 6 6 6 5 6 5 2 2 3 2 3 2 2 2 4 8 9 7 7 7 7 7 7 7
6 5 5 5 3 2 1 2 2 2 2 2 3 2 3 2 1 2 1 3 3 3 2 2 2 3 2 2 2 2 3 1 2 3 7 9 6 6 7 7 7 7 7
6 6 5 4 4 3 2 1 2 1 1 2 2 2 1 2 2 2 1 1 1 2 3 2 2 2 2 2 2 2 2 2 2 2 6 8 6 6 6 7 7 7 7
6 6 6 5 5 4 3 2 1 1 1 1 1 2 1 0 1 1 2 1 1 1 1 1 2 2 2 1 1 2 1 2 2 1 3 7 8 7 6 6 7 7 8
7 7 6 6 5 5 4 3 2 2 2 1 1 1 1 1 1 2 1 2 1 1 2 2 2 2 2 2 2 3 2 2 2 2 2 2 6 9 8 7 7 7 8
7 7 6 6 6 5 4 3 2 1 1 1 1 1 2 1 2 2 2 2 1 2 2 2 3 2 2 2 2 2 2 2 3 3 4 4 3 4 9 9 8 7 8
6 6 6 6 5 5 5 4 3 2 2 2 2 2 1 2 3 3 2 1 3 2 2 3 2 3 2 2 3 3 3 3 3 4 3 4 4 4 4 9 10 8 9
7 6 7 6 6 6 5 4 3 3 3 3 3 2 3 2 3 3 3 3 4 3 3 2 2 3 3 3 4 2 3 3 3 3 4 4 4 5 5 5 6 8 10
7 7 7 7 6 5 4 4 3 4 3 3 3 3 3 4 3 3 3 2 4 3 3 4 4 4 4 3 3 3 4 5 4 3 3 3 4 4 4 4 4 4 5
8 7 7 7 6 6 4 3 2 2 2 3 2 2 4 4 4 3 3 4 4 3 4 5 4 4 3 3 3 3 3 3 4 3 3 3 3 3 4 4 4 4 4
7 7 6 6 6 6 5 3 3 2 3 3 3 3 3 3 3 3 3 4 4 5 4 5 5 5 4 3 3 3 3 1 1 3 2 2 3 3 3 3 4 4 4
7 7 7 6 6 5 5 4 4 3 3 2 2 2 2 3 3 4 4 4 4 4 4 5 4 4 5 4 3 3 4 3 3 1 2 3 2 2 3 3 3 3 3
7 7 6 6 5 5 4 4 4 3 2 2 2 2 2 2 3 3 4 4 4 4 4 5 4 4 4 4 3 3 3 3 5 4 2 1 2 1 1 2 2 2 2
7 7 7 6 5 5 4 4 4 3 2 2 2 2 2 1 2 3 3 4 4 4 4 4 4 4 4 4 4 3 3 3 3 3 3 3 2 1 1 1 2 2 1
Wind_Direction
110 102 102 97 95 94 94 95 94 95 96 96 96 96 98 99 98 96 95 96 98 99 101 104 106 107 108 109 109 109 111 112 115 116 114 113 114 116 120 124 125 114 116
113 107 105 99 96 95 96 97 97 96 96 96 97 97 98 100 99 98 97 98 99 101 102 103 105 106 106 107 109 111 111 112 116 120 122 120 118 118 119 114 106 111 122
117 114 119 102 99 97 97 98 98 97 96 96 96 96 96 98 99 98 99 100 101 101 102 103 103 102 103 104 106 109 111 114 117 125 138 127 120 117 117 114 112 119 121
119 117 106 106 102 99 98 99 99 98 96 95 94 94 94 95 97 98 99 100 100 101 103 104 103 103 102 103 105 108 112 117 123 150 138 119 121 118 122 121 121 122 123
110 108 108 113 106 102 98 99 99 97 96 96 94 95 95 96 98 97 98 99 100 101 102 103 104 104 105 106 106 107 111 119 139 160 108 110 110 121 126 126 126 126 126
127 123 110 115 110 104 99 98 99 96 95 94 94 94 93 95 98 99 99 100 101 101 101 103 105 106 107 108 108 109 115 134 168 115 110 115 114 125 127 127 126 126 126
122 116 116 117 112 107 103 100 97 95 94 93 93 92 93 94 97 98 98 100 101 101 101 101 104 108 111 111 112 114 122 147 118 105 109 106 107 121 125 126 127 126 126
125 119 116 120 113 108 106 103 100 96 94 94 94 92 94 95 95 97 98 101 102 102 101 101 103 109 113 113 114 119 134 185 119 107 106 101 106 121 124 124 126 128 128
121 122 132 135 131 123 111 107 104 99 97 96 95 96 97 98 97 100 100 102 105 105 103 103 103 107 113 117 119 121 124 274 120 113 112 107 116 123 124 125 129 132 132
129 127 131 126 127 139 130 117 108 105 102 101 100 101 109 115 114 120 118 104 106 106 104 103 103 109 113 117 121 125 150 217 119 115 111 111 124 129 129 130 130 133 135
132 129 135 131 132 132 125 126 135 130 124 138 124 128 166 135 123 132 93 106 109 108 105 103 108 118 130 129 129 149 192 148 110 102 100 112 132 135 135 136 136 139 142
151 152 140 136 126 131 123 134 139 140 131 132 110 129 122 98 88 100 109 111 113 116 120 113 126 160 188 142 147 187 162 126 124 116 107 124 139 142 142 141 144 147 149
157 156 147 142 150 153 129 137 111 113 128 140 122 129 111 131 135 130 136 141 143 160 147 141 175 149 112 95 131 134 110 120 113 116 116 134 147 153 152 154 158 161 159
160 159 149 141 155 153 140 132 158 169 156 133 133 185 139 137 129 109 132 130 151 140 132 150 133 114 101 110 118 123 143 127 110 106 121 141 157 166 167 169 172 172 171
171 168 157 160 163 164 169 217 158 144 140 130 131 133 168 167 158 140 127 141 147 141 160 171 140 128 151 158 158 153 141 110 118 136 132 151 169 179 181 182 185 186 185
181 178 171 180 180 178 180 194 183 175 184 171 151 126 213 164 151 191 178 186 180 170 116 185 157 174 192 161 171 162 197 156 138 179 155 158 174 185 193 196 196 194 194
185 183 184 185 185 189 193 199 195 192 183 206 168 168 205 204 177 236 211 204 191 174 178 205 202 202 203 192 181 187 198 203 167 186 195 182 176 182 192 199 204 207 208
190 186 193 195 182 187 198 206 208 207 195 227 242 220 216 239 223 246 239 223 215 223 211 205 228 224 215 222 207 218 203 189 200 206 207 202 211 190 183 192 203 210 215
196 193 197 204 194 193 195 200 202 203 221 240 243 247 236 247 244 246 254 268 250 239 231 237 200 246 229 237 220 209 226 218 208 215 224 221 209 218 200 175 194 209 218
193 195 203 205 201 199 200 198 205 212 218 229 237 244 258 247 246 256 242 235 252 242 237 238 238 237 244 241 256 230 230 230 229 222 229 226 221 222 223 203 196 201 211
190 194 202 208 198 201 203 208 205 209 214 219 231 233 247 257 253 256 267 236 247 239 250 244 243 229 232 231 244 235 223 223 225 226 234 237 228 228 233 229 234 232 202
191 195 199 203 200 201 198 208 217 234 235 229 244 238 245 249 253 242 248 253 246 246 242 248 241 258 248 225 251 257 239 203 206 210 215 227 238 230 230 230 236 239 257
189 192 192 196 198 202 199 204 207 208 231 224 232 237 245 248 248 261 261 265 261 250 238 243 238 241 248 235 243 267 272 261 229 174 197 227 229 235 242 238 234 233 240
185 182 186 188 193 191 193 207 214 219 229 235 245 250 256 246 250 252 254 259 261 260 250 244 232 240 245 246 229 243 271 305 276 231 194 185 206 236 258 266 259 242 239
176 173 174 176 180 183 192 199 217 227 230 231 230 237 256 245 246 256 259 257 249 251 252 254 251 246 239 245 246 240 246 244 249 257 252 219 207 217 242 265 276 274 263
167 168 168 168 173 177 185 193 211 221 235 250 253 262 252 240 236 249 257 255 249 249 247 246 245 238 244 248 248 245 247 250 249 248 250 242 237 215 231 275 265 265 277